Time,TemperatureF,DewpointF,PressureIn,WindDirection,WindDirectionDegrees,WindSpeedMPH,WindSpeedGustMPH,Humidity,HourlyPrecipIn,Conditions,Clouds,dailyrainin,SoftwareType,DateUTC
2013-03-11 00:00:00,60.9,40.5,29.85,NE,49,1.0,1.0,47,0.00,,,0.03,Wunderground v.1.13,2013-03-11 04:00:00,
2013-03-11 00:10:00,60.5,39.0,29.85,East,82,1.0,19.0,45,0.00,,,0.03,Wunderground v.1.13,2013-03-11 04:10:00,
2013-03-11 00:15:00,60.4,39.5,29.84,East,83,1.0,19.0,46,0.00,,,0.03,Wunderground v.1.13,2013-03-11 04:15:00,
2013-03-11 00:20:00,60.2,39.9,29.84,East,83,1.0,19.0,47,0.00,,,0.03,Wunderground v.1.13,2013-03-11 04:20:00,
2013-03-11 00:25:00,60.1,40.3,29.84,East,83,0.0,19.0,48,0.00,,,0.03,Wunderground v.1.13,2013-03-11 04:25:00,
2013-03-11 00:30:00,59.9,41.2,29.84,East,85,0.0,19.0,50,0.00,,,0.04,Wunderground v.1.13,2013-03-11 04:30:00,
2013-03-11 00:40:00,59.3,41.2,29.84,ESE,112,1.0,19.0,51,0.00,,,0.04,Wunderground v.1.13,2013-03-11 04:40:00,
2013-03-11 00:45:00,59.2,41.6,29.84,ESE,114,2.0,2.0,52,0.00,,,0.04,Wunderground v.1.13,2013-03-11 04:45:00,
2013-03-11 00:50:00,59.0,41.4,29.84,ESE,120,2.0,2.0,52,0.00,,,0.04,Wunderground v.1.13,2013-03-11 04:50:00,
2013-03-11 00:55:00,58.9,41.3,29.84,East,100,2.0,19.0,52,0.00,,,0.04,Wunderground v.1.13,2013-03-11 04:55:00,
2013-03-11 01:00:00,58.6,41.0,29.84,ESE,117,3.0,19.0,52,0.00,,,0.04,Wunderground v.1.13,2013-03-11 05:00:00,
2013-03-11 01:05:00,58.3,42.2,29.84,ESE,120,3.0,3.0,55,0.00,,,0.00,Wunderground v.1.13,2013-03-11 05:05:00,
2013-03-11 01:10:00,58.0,42.4,29.84,SE,136,2.0,19.0,56,0.00,,,0.00,Wunderground v.1.13,2013-03-11 05:10:00,
2013-03-11 01:15:00,57.6,42.5,29.85,ESE,123,3.0,19.0,57,0.00,,,0.01,Wunderground v.1.13,2013-03-11 05:15:00,
2013-03-11 01:20:00,57.2,42.5,29.85,ENE,78,3.0,19.0,58,0.00,,,0.01,Wunderground v.1.13,2013-03-11 05:20:00,
2013-03-11 01:25:00,56.9,43.2,29.85,ESE,113,2.0,2.0,60,0.00,,,0.01,Wunderground v.1.13,2013-03-11 05:25:00,
2013-03-11 01:30:00,56.7,43.0,29.84,East,86,2.0,2.0,60,0.00,,,0.01,Wunderground v.1.13,2013-03-11 05:30:00,
2013-03-11 01:35:00,56.6,43.3,29.84,East,86,1.0,1.0,61,0.00,,,0.01,Wunderground v.1.13,2013-03-11 05:35:00,
2013-03-11 01:45:00,56.3,43.9,29.83,East,86,1.0,1.0,63,0.00,,,0.02,Wunderground v.1.13,2013-03-11 05:45:00,
2013-03-11 01:50:00,56.0,44.0,29.83,East,86,0.0,19.0,64,0.05,,,0.03,Wunderground v.1.13,2013-03-11 05:50:00,
2013-03-11 01:55:00,55.7,44.5,29.83,East,86,1.0,19.0,66,0.24,,,0.05,Wunderground v.1.13,2013-03-11 05:55:00,
2013-03-11 02:00:00,55.4,45.0,29.81,East,86,1.0,1.0,68,0.17,,,0.06,Wunderground v.1.13,2013-03-11 06:00:00,
2013-03-11 02:05:00,55.1,45.1,29.81,East,86,0.0,19.0,69,0.24,,,0.08,Wunderground v.1.13,2013-03-11 06:05:00,
2013-03-11 02:15:00,54.7,45.5,29.81,ENE,68,1.0,1.0,71,0.05,,,0.08,Wunderground v.1.13,2013-03-11 06:15:00,
2013-03-11 02:20:00,54.5,45.7,29.81,SE,127,1.0,19.0,72,0.32,,,0.10,Wunderground v.1.13,2013-03-11 06:20:00,
2013-03-11 02:25:00,54.2,46.1,29.81,East,93,2.0,2.0,74,0.10,,,0.11,Wunderground v.1.13,2013-03-11 06:25:00,
2013-03-11 02:30:00,54.1,46.7,29.82,East,96,1.0,1.0,76,0.17,,,0.12,Wunderground v.1.13,2013-03-11 06:30:00,
2013-03-11 02:35:00,53.8,46.4,29.82,East,90,1.0,1.0,76,0.07,,,0.13,Wunderground v.1.13,2013-03-11 06:35:00,
2013-03-11 02:40:00,53.6,46.9,29.82,East,90,1.0,19.0,78,0.20,,,0.14,Wunderground v.1.13,2013-03-11 06:40:00,
2013-03-11 02:50:00,53.2,46.9,29.82,East,90,1.0,1.0,79,0.35,,,0.18,Wunderground v.1.13,2013-03-11 06:50:00,
2013-03-11 02:55:00,53.1,47.1,29.82,East,90,1.0,1.0,80,0.11,,,0.18,Wunderground v.1.13,2013-03-11 06:55:00,
2013-03-11 03:00:00,52.9,46.9,29.82,East,90,1.0,19.0,80,0.20,,,0.20,Wunderground v.1.13,2013-03-11 07:00:00,
2013-03-11 03:05:00,52.8,47.1,29.82,East,92,1.0,1.0,81,0.43,,,0.22,Wunderground v.1.13,2013-03-11 07:05:00,
2013-03-11 03:10:00,52.8,47.1,29.82,East,92,0.0,19.0,81,0.13,,,0.23,Wunderground v.1.13,2013-03-11 07:10:00,
2013-03-11 03:20:00,52.5,47.2,29.82,East,90,0.0,19.0,82,0.07,,,0.24,Wunderground v.1.13,2013-03-11 07:20:00,
2013-03-11 03:25:00,52.5,47.2,29.82,East,88,1.0,1.0,82,0.06,,,0.25,Wunderground v.1.13,2013-03-11 07:25:00,
2013-03-11 03:30:00,52.3,47.0,29.81,East,88,1.0,1.0,82,0.14,,,0.26,Wunderground v.1.13,2013-03-11 07:30:00,
2013-03-11 03:35:00,52.3,47.0,29.81,East,88,0.0,19.0,82,0.08,,,0.27,Wunderground v.1.13,2013-03-11 07:35:00,
2013-03-11 03:40:00,52.2,46.9,29.81,East,88,0.0,19.0,82,0.16,,,0.28,Wunderground v.1.13,2013-03-11 07:40:00,
2013-03-11 03:45:00,52.2,46.9,29.81,East,88,0.0,19.0,82,0.07,,,0.28,Wunderground v.1.13,2013-03-11 07:45:00,
2013-03-11 03:55:00,52.0,46.7,29.81,East,88,0.0,19.0,82,0.11,,,0.30,Wunderground v.1.13,2013-03-11 07:55:00,
2013-03-11 04:00:00,52.0,46.7,29.79,East,88,0.0,19.0,82,0.09,,,0.31,Wunderground v.1.13,2013-03-11 08:00:00,
2013-03-11 04:05:00,51.9,46.9,29.79,East,88,0.0,19.0,83,0.13,,,0.32,Wunderground v.1.13,2013-03-11 08:05:00,
2013-03-11 04:10:00,51.7,46.7,29.79,East,88,0.0,19.0,83,0.07,,,0.32,Wunderground v.1.13,2013-03-11 08:10:00,
2013-03-11 04:15:00,51.6,46.9,29.78,East,88,0.0,19.0,84,0.31,,,0.34,Wunderground v.1.13,2013-03-11 08:15:00,
2013-03-11 04:25:00,51.4,46.7,29.78,East,88,0.0,19.0,84,0.06,,,0.34,Wunderground v.1.13,2013-03-11 08:25:00,
2013-03-11 04:30:00,51.1,46.7,29.78,East,88,1.0,1.0,85,0.23,,,0.35,Wunderground v.1.13,2013-03-11 08:30:00,
2013-03-11 04:35:00,51.0,46.6,29.78,East,88,1.0,19.0,85,0.12,,,0.36,Wunderground v.1.13,2013-03-11 08:35:00,
2013-03-11 04:40:00,51.0,47.0,29.78,East,88,0.0,19.0,86,0.33,,,0.37,Wunderground v.1.13,2013-03-11 08:40:00,
2013-03-11 04:45:00,50.8,46.8,29.78,East,88,0.0,19.0,86,0.15,,,0.39,Wunderground v.1.13,2013-03-11 08:45:00,
2013-03-11 04:50:00,50.8,46.8,29.78,East,88,0.0,19.0,86,0.14,,,0.40,Wunderground v.1.13,2013-03-11 08:50:00,
2013-03-11 04:55:00,50.8,47.1,29.78,East,88,0.0,19.0,87,0.23,,,0.42,Wunderground v.1.13,2013-03-11 08:55:00,
2013-03-11 05:00:00,50.8,47.1,29.79,East,88,0.0,19.0,87,0.11,,,0.42,Wunderground v.1.13,2013-03-11 09:00:00,
2013-03-11 05:05:00,50.8,47.4,29.79,East,88,0.0,19.0,88,0.23,,,0.44,Wunderground v.1.13,2013-03-11 09:05:00,
2013-03-11 05:10:00,50.8,47.4,29.79,East,88,0.0,19.0,88,0.33,,,0.46,Wunderground v.1.13,2013-03-11 09:10:00,
2013-03-11 05:15:00,50.8,47.4,29.79,East,88,0.0,19.0,88,0.30,,,0.48,Wunderground v.1.13,2013-03-11 09:15:00,
2013-03-11 05:20:00,51.0,47.6,29.79,East,96,1.0,1.0,88,0.15,,,0.49,Wunderground v.1.13,2013-03-11 09:20:00,
2013-03-11 05:30:00,51.0,47.3,29.79,East,89,0.0,19.0,87,0.29,,,0.52,Wunderground v.1.13,2013-03-11 09:30:00,
2013-03-11 05:35:00,51.0,47.3,29.79,East,89,0.0,19.0,87,0.26,,,0.53,Wunderground v.1.13,2013-03-11 09:35:00,
2013-03-11 05:40:00,51.0,47.0,29.79,East,89,0.0,19.0,86,0.41,,,0.55,Wunderground v.1.13,2013-03-11 09:40:00,
2013-03-11 05:45:00,51.1,47.1,29.79,East,93,1.0,1.0,86,0.14,,,0.57,Wunderground v.1.13,2013-03-11 09:45:00,
2013-03-11 05:50:00,51.3,47.3,29.79,NE,45,1.0,1.0,86,0.18,,,0.58,Wunderground v.1.13,2013-03-11 09:50:00,
2013-03-11 06:00:00,51.9,46.6,29.79,NE,40,1.0,19.0,82,0.15,,,0.60,Wunderground v.1.13,2013-03-11 10:00:00,
2013-03-11 06:05:00,52.0,46.3,29.79,ESE,104,2.0,19.0,81,0.09,,,0.61,Wunderground v.1.13,2013-03-11 10:05:00,
2013-03-11 06:10:00,52.2,46.2,29.79,ENE,61,2.0,2.0,80,0.12,,,0.62,Wunderground v.1.13,2013-03-11 10:10:00,
2013-03-11 06:15:00,52.2,46.5,29.80,ESE,116,1.0,19.0,81,0.28,,,0.64,Wunderground v.1.13,2013-03-11 10:15:00,
2013-03-11 06:20:00,52.0,46.7,29.80,East,100,1.0,1.0,82,0.47,,,0.66,Wunderground v.1.13,2013-03-11 10:20:00,
2013-03-11 06:25:00,52.0,46.7,29.80,East,97,1.0,1.0,82,0.12,,,0.67,Wunderground v.1.13,2013-03-11 10:25:00,
2013-03-11 06:35:00,52.0,46.7,29.79,East,96,1.0,1.0,82,0.07,,,0.69,Wunderground v.1.13,2013-03-11 10:35:00,
2013-03-11 06:40:00,52.0,46.7,29.79,ESE,103,1.0,1.0,82,0.18,,,0.70,Wunderground v.1.13,2013-03-11 10:40:00,
2013-03-11 06:45:00,51.9,46.9,29.79,ESE,103,1.0,19.0,83,0.35,,,0.72,Wunderground v.1.13,2013-03-11 10:45:00,
2013-03-11 06:50:00,51.9,46.9,29.79,East,100,1.0,1.0,83,0.13,,,0.73,Wunderground v.1.13,2013-03-11 10:50:00,
2013-03-11 06:55:00,51.7,46.7,29.79,East,100,0.0,19.0,83,0.10,,,0.74,Wunderground v.1.13,2013-03-11 10:55:00,
2013-03-11 07:05:00,51.6,46.9,29.78,East,90,0.0,19.0,84,0.06,,,0.74,Wunderground v.1.13,2013-03-11 11:05:00,
2013-03-11 07:10:00,51.6,46.9,29.78,East,90,1.0,1.0,84,0.05,,,0.75,Wunderground v.1.13,2013-03-11 11:10:00,
2013-03-11 07:15:00,51.6,47.2,29.78,NE,55,1.0,1.0,85,0.12,,,0.76,Wunderground v.1.13,2013-03-11 11:15:00,
2013-03-11 07:20:00,51.6,47.2,29.78,East,85,1.0,1.0,85,0.07,,,0.77,Wunderground v.1.13,2013-03-11 11:20:00,
2013-03-11 07:25:00,51.6,47.5,29.78,NE,49,1.0,1.0,86,0.10,,,0.78,Wunderground v.1.13,2013-03-11 11:25:00,
2013-03-11 07:30:00,51.6,47.5,29.78,East,97,0.0,19.0,86,0.10,,,0.78,Wunderground v.1.13,2013-03-11 11:30:00,
2013-03-11 07:40:00,51.6,47.5,29.78,East,97,0.0,19.0,86,0.14,,,0.80,Wunderground v.1.13,2013-03-11 11:40:00,
2013-03-11 07:45:00,51.6,47.5,29.79,East,97,0.0,19.0,86,0.22,,,0.82,Wunderground v.1.13,2013-03-11 11:45:00,
2013-03-11 07:50:00,51.4,47.7,29.79,East,97,0.0,19.0,87,0.14,,,0.83,Wunderground v.1.13,2013-03-11 11:50:00,
2013-03-11 07:55:00,51.4,47.7,29.79,East,97,0.0,19.0,87,0.15,,,0.84,Wunderground v.1.13,2013-03-11 11:55:00,
2013-03-11 08:00:00,51.4,48.0,29.78,East,97,0.0,19.0,88,0.31,,,0.86,Wunderground v.1.13,2013-03-11 12:00:00,
2013-03-11 08:10:00,51.4,48.0,29.78,NE,51,1.0,1.0,88,0.23,,,0.88,Wunderground v.1.13,2013-03-11 12:10:00,
2013-03-11 08:15:00,51.4,48.3,29.79,NNE,27,1.0,19.0,89,0.08,,,0.88,Wunderground v.1.13,2013-03-11 12:15:00,
2013-03-11 08:20:00,51.6,48.5,29.79,NE,48,1.0,19.0,89,0.19,,,0.90,Wunderground v.1.13,2013-03-11 12:20:00,
2013-03-11 08:25:00,51.6,48.5,29.79,NE,41,1.0,1.0,89,0.09,,,0.90,Wunderground v.1.13,2013-03-11 12:25:00,
2013-03-11 08:30:00,51.6,48.5,29.79,NE,49,1.0,19.0,89,0.08,,,0.91,Wunderground v.1.13,2013-03-11 12:30:00,
2013-03-11 08:35:00,51.6,48.5,29.79,East,96,1.0,1.0,89,0.10,,,0.92,Wunderground v.1.13,2013-03-11 12:35:00,
2013-03-11 08:40:00,51.6,48.2,29.79,East,96,1.0,19.0,88,0.08,,,0.92,Wunderground v.1.13,2013-03-11 12:40:00,
2013-03-11 08:45:00,51.6,48.2,29.79,East,83,1.0,1.0,88,0.07,,,0.93,Wunderground v.1.13,2013-03-11 12:45:00,
2013-03-11 08:50:00,51.6,48.2,29.79,East,83,0.0,19.0,88,0.13,,,0.93,Wunderground v.1.13,2013-03-11 12:50:00,
2013-03-11 08:55:00,51.6,48.5,29.79,NE,51,1.0,19.0,89,0.09,,,0.94,Wunderground v.1.13,2013-03-11 12:55:00,
2013-03-11 09:00:00,51.7,48.6,29.78,East,83,2.0,19.0,89,0.11,,,0.95,Wunderground v.1.13,2013-03-11 13:00:00,
2013-03-11 09:05:00,51.9,48.8,29.78,NE,41,1.0,1.0,89,0.08,,,0.95,Wunderground v.1.13,2013-03-11 13:05:00,
2013-03-11 09:10:00,52.0,48.9,29.78,ENE,75,1.0,19.0,89,0.05,,,0.95,Wunderground v.1.13,2013-03-11 13:10:00,
2013-03-11 09:15:00,52.2,49.1,29.78,East,80,1.0,1.0,89,0.00,,,0.95,Wunderground v.1.13,2013-03-11 13:15:00,
2013-03-11 09:20:00,52.3,49.2,29.78,East,80,1.0,1.0,89,0.00,,,0.96,Wunderground v.1.13,2013-03-11 13:20:00,
2013-03-11 09:25:00,52.3,49.2,29.78,East,80,1.0,19.0,89,0.09,,,0.96,Wunderground v.1.13,2013-03-11 13:25:00,
2013-03-11 09:30:00,52.3,49.2,29.76,East,80,1.0,19.0,89,0.09,,,0.97,Wunderground v.1.13,2013-03-11 13:30:00,
2013-03-11 09:35:00,52.5,49.4,29.76,East,80,1.0,1.0,89,0.06,,,0.97,Wunderground v.1.13,2013-03-11 13:35:00,
2013-03-11 09:45:00,52.5,49.4,29.72,North,0,1.0,1.0,89,0.00,,,0.97,Wunderground v.1.13,2013-03-11 13:45:00,
2013-03-11 09:50:00,52.5,49.4,29.72,North,359,2.0,2.0,89,0.00,,,0.98,Wunderground v.1.13,2013-03-11 13:50:00,
2013-03-11 09:55:00,52.3,49.2,29.72,NNE,23,3.0,3.0,89,0.00,,,0.98,Wunderground v.1.13,2013-03-11 13:55:00,
2013-03-11 10:00:00,52.3,49.2,29.70,North,0,2.0,19.0,89,0.06,,,0.99,Wunderground v.1.13,2013-03-11 14:00:00,
2013-03-11 10:05:00,52.5,49.4,29.70,NNE,31,2.0,19.0,89,0.11,,,1.00,Wunderground v.1.13,2013-03-11 14:05:00,
2013-03-11 10:10:00,52.6,49.4,29.70,ESE,114,2.0,2.0,89,0.08,,,1.00,Wunderground v.1.13,2013-03-11 14:10:00,
2013-03-11 10:20:00,52.8,49.6,29.70,North,0,0.0,19.0,89,0.00,,,1.00,Wunderground v.1.13,2013-03-11 14:20:00,
2013-03-11 10:25:00,53.1,49.9,29.70,NE,49,1.0,19.0,89,0.00,,,1.00,Wunderground v.1.13,2013-03-11 14:25:00,
2013-03-11 10:30:00,53.3,50.1,29.72,NE,35,2.0,2.0,89,0.00,,,1.00,Wunderground v.1.13,2013-03-11 14:30:00,
2013-03-11 10:35:00,53.5,50.0,29.72,NE,37,3.0,3.0,88,0.00,,,1.00,Wunderground v.1.13,2013-03-11 14:35:00,
2013-03-11 10:40:00,53.6,49.8,29.72,NE,41,3.0,3.0,87,0.00,,,1.00,Wunderground v.1.13,2013-03-11 14:40:00,
2013-03-11 10:50:00,53.8,49.7,29.70,ENE,58,2.0,19.0,86,0.00,,,1.00,Wunderground v.1.13,2013-03-11 14:50:00,
2013-03-11 10:55:00,53.9,49.8,29.70,NE,41,2.0,19.0,86,0.00,,,1.01,Wunderground v.1.13,2013-03-11 14:55:00,
2013-03-11 11:00:00,53.9,49.8,29.69,NE,47,1.0,19.0,86,0.00,,,1.01,Wunderground v.1.13,2013-03-11 15:00:00,
2013-03-11 11:05:00,53.9,49.8,29.69,North,10,2.0,19.0,86,0.00,,,1.01,Wunderground v.1.13,2013-03-11 15:05:00,
2013-03-11 11:10:00,53.9,49.8,29.69,East,95,2.0,2.0,86,0.00,,,1.01,Wunderground v.1.13,2013-03-11 15:10:00,
2013-03-11 11:15:00,53.9,49.8,29.69,ENE,68,2.0,2.0,86,0.00,,,1.01,Wunderground v.1.13,2013-03-11 15:15:00,
2013-03-11 11:25:00,53.9,49.5,29.69,NNE,31,2.0,19.0,85,0.00,,,1.01,Wunderground v.1.13,2013-03-11 15:25:00,
2013-03-11 11:30:00,53.9,49.5,29.70,SSE,147,2.0,2.0,85,0.00,,,1.01,Wunderground v.1.13,2013-03-11 15:30:00,
2013-03-11 11:35:00,53.9,49.5,29.70,NE,35,2.0,2.0,85,0.00,,,1.01,Wunderground v.1.13,2013-03-11 15:35:00,
2013-03-11 11:40:00,53.8,49.4,29.70,NNW,336,2.0,19.0,85,0.00,,,1.01,Wunderground v.1.13,2013-03-11 15:40:00,
2013-03-11 11:45:00,53.8,49.4,29.69,NE,48,2.0,19.0,85,0.00,,,1.02,Wunderground v.1.13,2013-03-11 15:45:00,
2013-03-11 11:55:00,53.6,49.5,29.69,NNE,31,2.0,19.0,86,0.00,,,1.02,Wunderground v.1.13,2013-03-11 15:55:00,
2013-03-11 12:00:00,53.6,49.5,29.67,North,356,2.0,2.0,86,0.04,,,1.03,Wunderground v.1.13,2013-03-11 16:00:00,
2013-03-11 12:05:00,53.6,49.5,29.67,NNE,17,3.0,19.0,86,0.04,,,1.03,Wunderground v.1.13,2013-03-11 16:05:00,
2013-03-11 12:10:00,53.6,49.5,29.67,ENE,68,4.0,4.0,86,0.04,,,1.03,Wunderground v.1.13,2013-03-11 16:10:00,
2013-03-11 12:15:00,53.8,49.7,29.66,NNE,32,4.0,19.0,86,0.00,,,1.03,Wunderground v.1.13,2013-03-11 16:15:00,
2013-03-11 12:20:00,53.9,50.1,29.66,ESE,104,3.0,3.0,87,0.00,,,1.03,Wunderground v.1.13,2013-03-11 16:20:00,
2013-03-11 12:30:00,54.2,50.1,29.65,ENE,65,3.0,3.0,86,0.00,,,1.04,Wunderground v.1.13,2013-03-11 16:30:00,
2013-03-11 12:35:00,54.5,50.7,29.65,North,0,2.0,19.0,87,0.00,,,1.04,Wunderground v.1.13,2013-03-11 16:35:00,
2013-03-11 12:40:00,54.7,50.6,29.65,North,0,3.0,19.0,86,0.04,,,1.05,Wunderground v.1.13,2013-03-11 16:40:00,
2013-03-11 12:45:00,54.8,50.7,29.65,ESE,110,4.0,4.0,86,0.04,,,1.05,Wunderground v.1.13,2013-03-11 16:45:00,
2013-03-11 12:50:00,55.0,50.9,29.65,North,4,3.0,19.0,86,0.04,,,1.05,Wunderground v.1.13,2013-03-11 16:50:00,
2013-03-11 13:00:00,55.3,51.2,29.64,NNE,27,5.0,19.0,86,0.10,,,1.07,Wunderground v.1.13,2013-03-11 17:00:00,
2013-03-11 13:05:00,55.4,51.0,29.64,East,99,6.0,19.0,85,0.07,,,1.07,Wunderground v.1.13,2013-03-11 17:05:00,
2013-03-11 13:10:00,55.6,51.2,29.64,East,90,7.0,7.0,85,0.04,,,1.07,Wunderground v.1.13,2013-03-11 17:10:00,
2013-03-11 13:15:00,55.7,51.3,29.64,East,100,6.0,6.0,85,0.00,,,1.07,Wunderground v.1.13,2013-03-11 17:15:00,
2013-03-11 13:20:00,55.9,51.5,29.64,NNE,32,5.0,19.0,85,0.00,,,1.08,Wunderground v.1.13,2013-03-11 17:20:00,
2013-03-11 13:25:00,56.0,51.6,29.64,SE,133,6.0,19.0,85,0.00,,,1.08,Wunderground v.1.13,2013-03-11 17:25:00,
2013-03-11 13:30:00,56.0,51.2,29.62,ENE,61,7.0,19.0,84,0.00,,,1.08,Wunderground v.1.13,2013-03-11 17:30:00,
2013-03-11 13:35:00,56.2,51.4,29.62,East,83,7.0,7.0,84,0.00,,,1.08,Wunderground v.1.13,2013-03-11 17:35:00,
2013-03-11 13:40:00,56.2,51.4,29.62,NNE,17,6.0,6.0,84,0.00,,,1.08,Wunderground v.1.13,2013-03-11 17:40:00,
2013-03-11 13:45:00,56.0,51.6,29.62,East,79,5.0,19.0,85,0.20,,,1.10,Wunderground v.1.13,2013-03-11 17:45:00,
2013-03-11 13:50:00,55.7,51.6,29.62,East,100,6.0,19.0,86,0.44,,,1.13,Wunderground v.1.13,2013-03-11 17:50:00,
2013-03-11 13:55:00,55.6,51.8,29.62,East,82,7.0,19.0,87,0.14,,,1.14,Wunderground v.1.13,2013-03-11 17:55:00,
2013-03-11 14:05:00,55.4,51.9,29.61,ESE,114,6.0,6.0,88,0.09,,,1.16,Wunderground v.1.13,2013-03-11 18:05:00,
2013-03-11 14:10:00,54.8,50.7,29.61,ESE,121,8.0,8.0,86,0.20,,,1.18,Wunderground v.1.13,2013-03-11 18:10:00,
2013-03-11 14:15:00,54.1,49.4,29.64,SE,128,8.0,19.0,84,0.16,,,1.19,Wunderground v.1.13,2013-03-11 18:15:00,
2013-03-11 14:20:00,53.5,48.5,29.64,SE,127,6.0,6.0,83,0.07,,,1.19,Wunderground v.1.13,2013-03-11 18:20:00,
2013-03-11 14:25:00,52.6,46.9,29.64,SE,136,6.0,19.0,81,0.04,,,1.19,Wunderground v.1.13,2013-03-11 18:25:00,
2013-03-11 14:35:00,51.4,45.8,29.65,SE,127,7.0,7.0,81,0.00,,,1.19,Wunderground v.1.13,2013-03-11 18:35:00,
2013-03-11 14:40:00,51.1,45.5,29.65,SE,130,6.0,19.0,81,0.00,,,1.19,Wunderground v.1.13,2013-03-11 18:40:00,
2013-03-11 14:45:00,50.8,45.2,29.63,SE,137,4.0,4.0,81,0.00,,,1.19,Wunderground v.1.13,2013-03-11 18:45:00,
2013-03-11 14:50:00,50.5,44.9,29.63,SE,136,5.0,19.0,81,0.00,,,1.19,Wunderground v.1.13,2013-03-11 18:50:00,
2013-03-11 14:55:00,50.4,44.5,29.63,ENE,78,7.0,7.0,80,0.00,,,1.19,Wunderground v.1.13,2013-03-11 18:55:00,
2013-03-11 15:00:00,50.2,43.9,29.65,SE,133,9.0,9.0,79,0.00,,,1.19,Wunderground v.1.13,2013-03-11 19:00:00,
2013-03-11 15:10:00,49.9,44.0,29.65,ESE,123,7.0,7.0,80,0.00,,,1.19,Wunderground v.1.13,2013-03-11 19:10:00,
2013-03-11 15:15:00,49.9,44.3,29.66,SE,124,8.0,8.0,81,0.00,,,1.19,Wunderground v.1.13,2013-03-11 19:15:00,
2013-03-11 15:20:00,49.8,44.2,29.66,ESE,113,6.0,6.0,81,0.00,,,1.20,Wunderground v.1.13,2013-03-11 19:20:00,
2013-03-11 15:25:00,49.8,44.5,29.66,SE,127,5.0,19.0,82,0.00,,,1.20,Wunderground v.1.13,2013-03-11 19:25:00,
2013-03-11 15:30:00,49.6,44.3,29.66,ESE,119,6.0,6.0,82,0.00,,,1.20,Wunderground v.1.13,2013-03-11 19:30:00,
2013-03-11 15:40:00,49.5,44.2,29.66,SE,136,5.0,19.0,82,0.00,,,1.20,Wunderground v.1.13,2013-03-11 19:40:00,
2013-03-11 15:45:00,49.5,44.2,29.66,ESE,120,6.0,6.0,82,0.00,,,1.20,Wunderground v.1.13,2013-03-11 19:45:00,
2013-03-11 15:50:00,49.4,44.1,29.66,SE,144,6.0,19.0,82,0.00,,,1.20,Wunderground v.1.13,2013-03-11 19:50:00,
2013-03-11 15:55:00,49.2,43.9,29.66,SSE,155,6.0,6.0,82,0.00,,,1.20,Wunderground v.1.13,2013-03-11 19:55:00,
2013-03-11 16:00:00,48.9,43.0,29.66,SE,134,5.0,5.0,80,0.00,,,1.20,Wunderground v.1.13,2013-03-11 20:00:00,
2013-03-11 16:05:00,48.6,42.4,29.66,SE,130,3.0,19.0,79,0.00,,,1.20,Wunderground v.1.13,2013-03-11 20:05:00,
2013-03-11 16:15:00,48.5,41.6,29.66,SE,131,5.0,5.0,77,0.00,,,1.20,Wunderground v.1.13,2013-03-11 20:15:00,
2013-03-11 16:20:00,48.5,40.9,29.66,East,93,6.0,19.0,75,0.00,,,1.20,Wunderground v.1.13,2013-03-11 20:20:00,
2013-03-11 16:25:00,48.5,40.2,29.66,ESE,119,6.0,6.0,73,0.00,,,1.20,Wunderground v.1.13,2013-03-11 20:25:00,
2013-03-11 16:30:00,48.6,40.0,29.66,ESE,110,8.0,8.0,72,0.00,,,1.20,Wunderground v.1.13,2013-03-11 20:30:00,
2013-03-11 16:35:00,48.8,39.4,29.66,SE,126,9.0,9.0,70,0.00,,,1.20,Wunderground v.1.13,2013-03-11 20:35:00,
2013-03-11 16:45:00,48.8,39.1,29.67,ESE,104,8.0,8.0,69,0.00,,,1.20,Wunderground v.1.13,2013-03-11 20:45:00,
2013-03-11 16:50:00,48.8,38.7,29.67,ESE,123,8.0,19.0,68,0.00,,,1.20,Wunderground v.1.13,2013-03-11 20:50:00,
2013-03-11 16:55:00,48.8,39.1,29.67,ESE,109,8.0,8.0,69,0.00,,,1.20,Wunderground v.1.13,2013-03-11 20:55:00,
2013-03-11 17:00:00,48.8,39.1,29.66,ESE,109,6.0,6.0,69,0.00,,,1.20,Wunderground v.1.13,2013-03-11 21:00:00,
2013-03-11 17:05:00,48.8,39.1,29.66,East,89,5.0,19.0,69,0.00,,,1.20,Wunderground v.1.13,2013-03-11 21:05:00,
2013-03-11 17:10:00,48.8,39.4,29.66,ESE,110,7.0,7.0,70,0.00,,,1.20,Wunderground v.1.13,2013-03-11 21:10:00,
2013-03-11 17:15:00,48.8,39.1,29.68,East,82,7.0,19.0,69,0.00,,,1.20,Wunderground v.1.13,2013-03-11 21:15:00,
2013-03-11 17:20:00,48.9,39.2,29.68,East,95,6.0,6.0,69,0.00,,,1.20,Wunderground v.1.13,2013-03-11 21:20:00,
2013-03-11 17:25:00,48.9,39.2,29.68,East,97,6.0,19.0,69,0.00,,,1.20,Wunderground v.1.13,2013-03-11 21:25:00,
2013-03-11 17:30:00,48.9,38.8,29.68,ESE,121,7.0,7.0,68,0.00,,,1.20,Wunderground v.1.13,2013-03-11 21:30:00,
2013-03-11 17:35:00,48.9,38.8,29.68,ESE,113,8.0,8.0,68,0.00,,,1.20,Wunderground v.1.13,2013-03-11 21:35:00,
2013-03-11 17:40:00,49.4,39.7,29.68,ESE,116,8.0,19.0,69,0.00,,,1.20,Wunderground v.1.13,2013-03-11 21:40:00,
2013-03-11 17:50:00,50.2,39.3,29.69,SE,136,8.0,19.0,66,0.00,,,1.20,Wunderground v.1.13,2013-03-11 21:50:00,
2013-03-11 17:55:00,50.4,39.1,29.69,SE,128,8.0,8.0,65,0.00,,,1.20,Wunderground v.1.13,2013-03-11 21:55:00,
2013-03-11 18:00:00,50.4,39.1,29.70,East,100,7.0,7.0,65,0.00,,,1.20,Wunderground v.1.13,2013-03-11 22:00:00,
2013-03-11 18:05:00,50.1,38.8,29.70,SE,124,7.0,7.0,65,0.00,,,1.20,Wunderground v.1.13,2013-03-11 22:05:00,
2013-03-11 18:10:00,49.9,38.6,29.70,ESE,121,6.0,19.0,65,0.00,,,1.20,Wunderground v.1.13,2013-03-11 22:10:00,
2013-03-11 18:20:00,49.8,38.9,29.71,SE,138,4.0,4.0,66,0.00,,,1.20,Wunderground v.1.13,2013-03-11 22:20:00,
2013-03-11 18:25:00,49.6,39.1,29.71,SE,126,4.0,19.0,67,0.00,,,1.20,Wunderground v.1.13,2013-03-11 22:25:00,
2013-03-11 18:30:00,49.5,38.2,29.72,ESE,123,4.0,4.0,65,0.00,,,1.20,Wunderground v.1.13,2013-03-11 22:30:00,
2013-03-11 18:35:00,49.5,37.4,29.72,SSE,147,5.0,19.0,63,0.00,,,1.20,Wunderground v.1.13,2013-03-11 22:35:00,
2013-03-11 18:40:00,49.4,36.9,29.72,ESE,114,5.0,19.0,62,0.00,,,1.20,Wunderground v.1.13,2013-03-11 22:40:00,
2013-03-11 18:45:00,49.1,37.0,29.73,ESE,123,7.0,19.0,63,0.00,,,1.20,Wunderground v.1.13,2013-03-11 22:45:00,
2013-03-11 18:55:00,47.6,36.8,29.73,ESE,103,4.0,4.0,66,0.00,,,1.20,Wunderground v.1.13,2013-03-11 22:55:00,
2013-03-11 19:00:00,47.1,36.7,29.75,SSE,152,3.0,3.0,67,0.00,,,1.20,Wunderground v.1.13,2013-03-11 23:00:00,
2013-03-11 19:05:00,46.8,36.8,29.75,SSE,147,2.0,19.0,68,0.00,,,1.20,Wunderground v.1.13,2013-03-11 23:05:00,
2013-03-11 19:10:00,46.4,36.0,29.75,SE,130,3.0,19.0,67,0.00,,,1.20,Wunderground v.1.13,2013-03-11 23:10:00,
2013-03-11 19:15:00,46.2,35.8,29.76,ESE,104,4.0,19.0,67,0.00,,,1.20,Wunderground v.1.13,2013-03-11 23:15:00,
2013-03-11 19:25:00,46.0,36.4,29.76,SE,136,6.0,6.0,69,0.00,,,1.20,Wunderground v.1.13,2013-03-11 23:25:00,
2013-03-11 19:30:00,45.5,35.9,29.78,SE,126,6.0,19.0,69,0.00,,,1.20,Wunderground v.1.13,2013-03-11 23:30:00,
2013-03-11 19:35:00,45.1,35.5,29.78,SSE,161,5.0,5.0,69,0.00,,,1.20,Wunderground v.1.13,2013-03-11 23:35:00,
2013-03-11 19:40:00,44.6,35.1,29.78,SE,131,3.0,19.0,69,0.00,,,1.20,Wunderground v.1.13,2013-03-11 23:40:00,
2013-03-11 19:45:00,44.3,34.8,29.78,ESE,120,3.0,19.0,69,0.00,,,1.20,Wunderground v.1.13,2013-03-11 23:45:00,
2013-03-11 19:50:00,44.1,34.6,29.78,East,90,4.0,19.0,69,0.00,,,1.20,Wunderground v.1.13,2013-03-11 23:50:00,
2013-03-11 20:00:00,43.8,33.9,29.79,SE,136,6.0,6.0,68,0.00,,,1.20,Wunderground v.1.13,2013-03-12 00:00:00,
2013-03-11 20:05:00,43.8,33.9,29.79,SE,140,6.0,19.0,68,0.00,,,1.20,Wunderground v.1.13,2013-03-12 00:05:00,
2013-03-11 20:10:00,43.9,34.0,29.79,SE,128,6.0,19.0,68,0.00,,,1.20,Wunderground v.1.13,2013-03-12 00:10:00,
2013-03-11 20:15:00,43.9,34.4,29.80,East,90,5.0,19.0,69,0.00,,,1.20,Wunderground v.1.13,2013-03-12 00:15:00,
2013-03-11 20:20:00,43.9,34.0,29.80,ESE,104,4.0,19.0,68,0.00,,,1.20,Wunderground v.1.13,2013-03-12 00:20:00,
2013-03-11 20:30:00,43.9,34.0,29.81,East,99,3.0,19.0,68,0.00,,,1.20,Wunderground v.1.13,2013-03-12 00:30:00,
2013-03-11 20:35:00,43.9,34.4,29.81,SE,130,3.0,3.0,69,0.00,,,1.20,Wunderground v.1.13,2013-03-12 00:35:00,
2013-03-11 20:40:00,43.9,34.4,29.81,SE,134,3.0,19.0,69,0.00,,,1.20,Wunderground v.1.13,2013-03-12 00:40:00,
2013-03-11 20:45:00,43.8,34.3,29.81,ESE,121,3.0,3.0,69,0.00,,,1.20,Wunderground v.1.13,2013-03-12 00:45:00,
2013-03-11 20:50:00,43.8,34.6,29.81,East,93,4.0,19.0,70,0.00,,,1.20,Wunderground v.1.13,2013-03-12 00:50:00,
2013-03-11 20:55:00,43.1,34.7,29.81,ESE,123,5.0,5.0,72,0.00,,,1.20,Wunderground v.1.13,2013-03-12 00:55:00,
2013-03-11 21:05:00,42.5,35.1,29.82,ESE,120,3.0,3.0,75,0.00,,,1.20,Wunderground v.1.13,2013-03-12 01:05:00,
2013-03-11 21:10:00,42.3,34.9,29.82,ESE,107,4.0,19.0,75,0.00,,,1.20,Wunderground v.1.13,2013-03-12 01:10:00,
2013-03-11 21:15:00,42.2,34.8,29.83,SE,137,5.0,19.0,75,0.00,,,1.20,Wunderground v.1.13,2013-03-12 01:15:00,
2013-03-11 21:20:00,42.1,34.7,29.83,SE,127,4.0,4.0,75,0.00,,,1.20,Wunderground v.1.13,2013-03-12 01:20:00,
2013-03-11 21:25:00,42.1,34.7,29.83,SE,136,3.0,19.0,75,0.00,,,1.20,Wunderground v.1.13,2013-03-12 01:25:00,
2013-03-11 21:35:00,41.9,33.9,29.84,ESE,103,5.0,5.0,73,0.00,,,1.20,Wunderground v.1.13,2013-03-12 01:35:00,
2013-03-11 21:40:00,41.9,34.2,29.84,SE,130,6.0,6.0,74,0.00,,,1.20,Wunderground v.1.13,2013-03-12 01:40:00,
2013-03-11 21:45:00,41.9,34.2,29.85,SE,127,4.0,19.0,74,0.00,,,1.20,Wunderground v.1.13,2013-03-12 01:45:00,
2013-03-11 21:50:00,41.9,34.6,29.85,ESE,120,3.0,19.0,75,0.00,,,1.20,Wunderground v.1.13,2013-03-12 01:50:00,
2013-03-11 21:55:00,41.9,34.6,29.85,SE,134,2.0,19.0,75,0.00,,,1.20,Wunderground v.1.13,2013-03-12 01:55:00,
2013-03-11 22:00:00,41.8,34.1,29.85,SE,144,3.0,3.0,74,0.00,,,1.20,Wunderground v.1.13,2013-03-12 02:00:00,
2013-03-11 22:05:00,41.8,33.8,29.85,SE,138,3.0,3.0,73,0.00,,,1.20,Wunderground v.1.13,2013-03-12 02:05:00,
2013-03-11 22:10:00,41.6,33.2,29.85,SE,127,3.0,19.0,72,0.00,,,1.20,Wunderground v.1.13,2013-03-12 02:10:00,
2013-03-11 22:15:00,41.6,32.2,29.86,East,99,4.0,4.0,69,0.00,,,1.20,Wunderground v.1.13,2013-03-12 02:15:00,
2013-03-11 22:20:00,41.5,32.4,29.86,South,172,3.0,19.0,70,0.00,,,1.20,Wunderground v.1.13,2013-03-12 02:20:00,
2013-03-11 22:25:00,41.3,31.5,29.86,ESE,114,3.0,19.0,68,0.00,,,1.20,Wunderground v.1.13,2013-03-12 02:25:00,
2013-03-11 22:30:00,41.2,31.1,29.86,SE,136,3.0,19.0,67,0.00,,,1.20,Wunderground v.1.13,2013-03-12 02:30:00,
2013-03-11 22:40:00,41.1,30.6,29.86,SE,143,4.0,19.0,66,0.00,,,1.20,Wunderground v.1.13,2013-03-12 02:40:00,
2013-03-11 22:45:00,40.9,30.8,29.87,SE,141,4.0,4.0,67,0.00,,,1.20,Wunderground v.1.13,2013-03-12 02:45:00,
2013-03-11 22:50:00,40.9,31.5,29.87,ESE,114,3.0,19.0,69,0.00,,,1.20,Wunderground v.1.13,2013-03-12 02:50:00,
2013-03-11 22:55:00,40.8,31.1,29.87,SSE,151,2.0,2.0,68,0.00,,,1.20,Wunderground v.1.13,2013-03-12 02:55:00,
2013-03-11 23:00:00,40.6,31.2,29.87,SSE,168,2.0,19.0,69,0.00,,,1.20,Wunderground v.1.13,2013-03-12 03:00:00,
2013-03-11 23:10:00,40.5,31.1,29.87,SSE,148,2.0,2.0,69,0.00,,,1.20,Wunderground v.1.13,2013-03-12 03:10:00,
2013-03-11 23:15:00,40.5,31.1,29.87,SE,138,2.0,2.0,69,0.00,,,1.20,Wunderground v.1.13,2013-03-12 03:15:00,
2013-03-11 23:20:00,40.3,30.9,29.87,SE,128,2.0,19.0,69,0.00,,,1.20,Wunderground v.1.13,2013-03-12 03:20:00,
2013-03-11 23:25:00,40.3,30.9,29.87,SE,143,2.0,2.0,69,0.00,,,1.20,Wunderground v.1.13,2013-03-12 03:25:00,
2013-03-11 23:30:00,40.3,30.9,29.86,ESE,123,2.0,2.0,69,0.00,,,1.20,Wunderground v.1.13,2013-03-12 03:30:00,
2013-03-11 23:35:00,40.2,30.8,29.86,SE,126,1.0,19.0,69,0.00,,,1.20,Wunderground v.1.13,2013-03-12 03:35:00,
2013-03-11 23:45:00,40.2,30.8,29.87,ESE,120,3.0,19.0,69,0.00,,,1.20,Wunderground v.1.13,2013-03-12 03:45:00,
2013-03-11 23:50:00,40.1,30.7,29.87,ESE,116,4.0,19.0,69,0.00,,,1.20,Wunderground v.1.13,2013-03-12 03:50:00,
2013-03-11 23:55:00,40.1,30.7,29.87,SE,136,4.0,4.0,69,0.00,,,1.20,Wunderground v.1.13,2013-03-12 03:55:00,